Preview of NWS' New Version of Forecast
This preview is not operational and should not be used for support decisions.

Regional Weather Roundup (RWR)

Issued by National Weather Service (NWS)

                            
000
ASUS43 KTOP 241008
RWRKS 

WEATHER ROUNDUP FOR KANSAS
NATIONAL WEATHER SERVICE GOODLAND KS
500 AM CDT SAT AUG 24 2019

NOTE:  "FAIR" INDICATES FEW OR NO CLOUDS BELOW 12,000 FEET WITH NO
SIGNIFICANT WEATHER AND/OR OBSTRUCTIONS TO VISIBILITY.

KSZ001>006-013>018-027>032-041>047-241100-
NORTHWEST KANSAS
  
CITY           SKY/WX    TMP DP  RH WIND       PRES   REMARKS
GOODLAND       FAIR      59  59 100 S6        30.07F                  
HAYS           CLOUDY    69  69 100 E6        29.83R                  
HILL CITY      LGT RAIN  65  63  93 SE7       30.03F                  
RUSSELL        CLOUDY    69  67  93 E7        30.03F                  
$$

KSZ061>065-074>080-084>089-241100-
SOUTHWEST KANSAS
  
CITY           SKY/WX    TMP DP  RH WIND       PRES   REMARKS
DODGE CITY     CLEAR     66  64  93 NE5       30.03R                  
ELKHART        MOCLDY    64  61  93 W3        30.05F                  
GARDEN CITY    CLEAR     64  63  96 N6        30.02F                  
GREAT BEND     CLOUDY    69  67  93 E7        30.03F                  
LIBERAL        CLEAR     63  62  97 W9        30.04R                  
PRATT          CLOUDY    69  67  95 E9        30.00F                  
$$

KSZ066>073-081>083-090>101-241100-
SOUTHEAST KANSAS
  
CITY           SKY/WX    TMP DP  RH WIND       PRES   REMARKS
CHANUTE        CLOUDY    73  70  90 E7        30.03S                  
COFFEYVILLE    MOCLDY    71  69  93 NE3       30.00R                  
HUTCHINSON     MOCLDY    69  67  93 E6        30.03S                  
MEDICINE LODGE   N/A     69  69 100 E6        29.98F                  
NEWTON         CLOUDY    69  68  96 E6        30.04F                  
PARSONS        MOCLDY    71  70  96 CALM      30.03R                  
WICHITA INTL   CLOUDY    71  67  87 E8        30.01F                  
WICHITA JABRA  CLOUDY    69  68  96 E5        30.02S                  
WICHITA MCCONL PTCLDY    70  66  88 N7        30.02                   
WINFIELD       MOCLDY    69  68  96 E7        30.02S                  
$$

KSZ007>012-019>026-033>040-048>060-102>105-241100-
NORTHEAST KANSAS
  
CITY           SKY/WX    TMP DP  RH WIND       PRES   REMARKS
CONCORDIA      MOCLDY    70  68  93 E6        30.05F                  
EMPORIA        CLOUDY    71  70  96 E8        30.05S                  
LAWRENCE       MOCLDY    70  64  81 E6        30.08R                  
MANHATTAN      CLOUDY    71  67  87 E8        30.06F                  
MARYSVILLE     CLEAR     68  64  88 SE7       30.08F                  
OLATHE IND     CLOUDY    69  64  84 E9        30.09R                  
OLATHE EXE     CLOUDY    68  64  87 E7        30.08S                  
SALINA         CLOUDY    72  67  84 E8        30.04S                  
TOPEKA BILLARD CLOUDY    70  64  81 E7        30.08R                  
TOPEKA FORBES  CLOUDY    71  64  78 E8        30.08R                  
$$